Mt. Pocono, PA

8:20 AM EST on December 13, 2019 (GMT -0500)
Pocono Mountains Municipal

Weather History for KMPO - October, 2019

Change the Weather History Date:

Wednesday, October 16, 2019

  Actual Average Record
Temperature  
Mean Temperature 49 °F 48 °F  
Max Temperature 55 °F 58 °F 79 °F (1947)
Min Temperature 43 °F 39 °F 20 °F (1907)
Degree Days  
Heating Degree Days 16 17  
Month to date heating degree days 197 236  
Since 1 July heating degree days 375 504  
Cooling Degree Days 0 0  
Month to date cooling degree days 5 0  
Year to date cooling degree days 348 313  
Moisture  
Dew Point 49 °F    
Average Humidity 99    
Maximum Humidity 100    
Minimum Humidity 89    
Precipitation  
Precipitation 1.99 in 0.13 in 1.96 in (2002)
Month to date precipitation 3.38 2.31  
Year to date precipitation 39.60 38.65  
Sea Level Pressure  
Sea Level Pressure 29.70 in    
Wind  
Wind Speed 10 mph ()    
Max Wind Speed 35 mph    
Max Gust Speed 47 mph    
Visibility 5.1 miles    
Events Fog , Rain    
T = Trace of Precipitation, MM = Missing Value Source: Averaged Metar Reports

Daily Weather History Graph

Daily Weather History Graph

Search for Another Location

Airport or City:

Astronomy

Oct. 16, 2019 Rise Set
Actual Time 7:13 AM EDT 6:19 PM EDT
Civil Twilight 6:46 AM EDT 6:47 PM EDT
Nautical Twilight 6:14 AM EDT 7:19 PM EDT
Astronomical Twilight 5:42 AM EDT 7:51 PM EDT
Moon 8:10 PM EDT (10/16) 9:43 AM EDT (10/16)
Length of Visible Light 12h 01m
Length of Day
11h 05m
Waning Gibbous, 93% of the Moon is Illuminated
Oct 16
Waning Gibbous
Oct 21
Last Quarter
Oct 27
New
Nov 4
First Quarter
Nov 12
Full

Hourly Weather History & Observations

Time (EDT) Temp. Windchill Dew Point Humidity Pressure Visibility Wind Dir Wind Speed Gust Speed Precip Events Conditions
12:33 AM 44.1 °F 40.8 °F 41.0 °F 89% 30.03 in 10.0 mi SSE 5.8 mph - N/A   Scattered Clouds
12:53 AM 45.0 °F 41.2 °F 43.0 °F 93% 30.05 in 10.0 mi SSE 6.9 mph - N/A   Clear
1:37 AM 45.0 °F 40.6 °F 44.1 °F 97% 30.02 in 10.0 mi SSE 8.1 mph - N/A   Partly Cloudy
1:53 AM 45.0 °F 41.2 °F 44.1 °F 97% 30.04 in 10.0 mi SSE 6.9 mph - N/A   Partly Cloudy
2:19 AM 46.0 °F 41.4 °F 45.0 °F 96% 30.02 in 10.0 mi SSE 9.2 mph - N/A   Mostly Cloudy
2:53 AM 46.0 °F 42.5 °F 45.0 °F 96% 30.02 in 10.0 mi ESE 6.9 mph - N/A   Mostly Cloudy
3:03 AM 45.0 °F 41.2 °F 45.0 °F 100% 30.00 in 9.0 mi SE 6.9 mph - N/A   Partly Cloudy
3:50 AM 46.4 °F 41.9 °F 46.4 °F 100% 29.98 in 7.0 mi SE 9.2 mph - N/A   Mostly Cloudy
3:53 AM 46.0 °F 41.9 °F 46.0 °F 100% 29.99 in 7.0 mi SE 8.1 mph - N/A   Mostly Cloudy
4:35 AM 46.9 °F - 46.9 °F 100% 29.96 in 6.0 mi SE 8.1 mph - N/A   Overcast
4:42 AM 46.9 °F - 46.9 °F 100% 29.96 in 5.0 mi SE 9.2 mph - N/A   Overcast
4:53 AM 46.9 °F - 46.9 °F 100% 29.97 in 5.0 mi SE 9.2 mph - N/A   Overcast
5:53 AM 46.9 °F - 46.9 °F 100% 29.97 in 4.0 mi Variable 3.5 mph - N/A   Overcast
6:33 AM 46.9 °F - 46.9 °F 100% 29.95 in 2.0 mi ESE 4.6 mph - N/A   Overcast
6:41 AM 46.9 °F - 46.9 °F 100% 29.94 in 1.2 mi ESE 6.9 mph - N/A   Overcast
6:53 AM 46.9 °F - 46.9 °F 100% 29.94 in 0.8 mi East 5.8 mph - N/A   Mist
7:21 AM 46.9 °F - 46.9 °F 100% 29.90 in 0.2 mi East 4.6 mph - N/A Fog Fog
7:53 AM 46.9 °F - 46.9 °F 100% 29.92 in 0.2 mi ESE 5.8 mph - N/A Fog Fog
8:53 AM 48.0 °F - 48.0 °F 100% 29.91 in 0.2 mi ESE 11.5 mph - N/A Fog Fog
9:53 AM 50.0 °F - 50.0 °F 100% 29.87 in 0.2 mi ESE 10.4 mph - N/A Fog Fog
10:53 AM 52.0 °F - 52.0 °F 100% 29.83 in 0.2 mi ESE 11.5 mph - N/A Fog Fog
11:30 AM 53.1 °F - 53.1 °F 100% 29.79 in 1.0 mi SE 15.0 mph 19.6 mph N/A   Mist
11:40 AM 53.1 °F - 53.1 °F 100% 29.78 in 3.0 mi ESE 10.4 mph 21.9 mph N/A   Overcast
11:53 AM 53.1 °F - 53.1 °F 100% 29.79 in 6.0 mi ESE 12.7 mph 21.9 mph N/A   Overcast
12:13 PM 53.1 °F - 53.1 °F 100% 29.77 in 9.0 mi SE 11.5 mph 21.9 mph N/A   Overcast
12:29 PM 53.1 °F - 53.1 °F 100% 29.75 in 10.0 mi ESE 11.5 mph - N/A   Overcast
12:53 PM 53.1 °F - 53.1 °F 100% 29.74 in 10.0 mi ESE 10.4 mph 19.6 mph 0.00 in Rain Light Rain
1:21 PM 54.0 °F - 54.0 °F 100% 29.70 in 10.0 mi ESE 10.4 mph 17.3 mph 0.00 in   Overcast
1:43 PM 54.0 °F - 54.0 °F 100% 29.68 in 2.5 mi SSE 10.4 mph 19.6 mph 0.05 in Rain Rain
1:53 PM 54.0 °F - 54.0 °F 100% 29.70 in 1.5 mi SE 15.0 mph 20.7 mph 0.13 in Rain Rain
2:04 PM 55.0 °F - 55.0 °F 100% 29.68 in 2.5 mi SE 11.5 mph 21.9 mph 0.04 in Rain Rain
2:18 PM 54.0 °F - 54.0 °F 100% 29.67 in 3.0 mi SSE 19.6 mph 27.6 mph 0.08 in Rain Rain
2:53 PM 54.0 °F - 54.0 °F 100% 29.66 in 1.5 mi SE 17.3 mph 29.9 mph 0.28 in Rain Heavy Rain
3:04 PM 54.0 °F - 54.0 °F 100% 29.64 in 2.5 mi SE 17.3 mph 32.2 mph 0.05 in Rain Heavy Rain
3:12 PM 54.0 °F - 53.1 °F 97% 29.64 in 2.5 mi SE 13.8 mph 32.2 mph 0.08 in Rain Rain
3:20 PM 54.0 °F - 54.0 °F 100% 29.62 in 4.0 mi ESE 12.7 mph 23.0 mph 0.10 in Rain Rain
3:42 PM 53.1 °F - 53.1 °F 100% 29.60 in 6.0 mi ESE 10.4 mph - 0.13 in Rain Light Rain
3:53 PM 53.1 °F - 53.1 °F 100% 29.60 in 5.0 mi ESE 10.4 mph - 0.15 in Rain Light Rain
3:59 PM 53.1 °F - 53.1 °F 100% 29.59 in 4.0 mi ESE 10.4 mph - 0.02 in Rain Rain
4:15 PM 53.1 °F - 53.1 °F 100% 29.58 in 2.5 mi ESE 10.4 mph 19.6 mph 0.10 in Rain Heavy Rain
4:23 PM 53.1 °F - 53.1 °F 100% 29.57 in 2.0 mi East 12.7 mph 20.7 mph 0.15 in Rain Heavy Rain
4:53 PM 53.1 °F - 53.1 °F 100% 29.56 in 2.5 mi ESE 16.1 mph 27.6 mph 0.31 in Rain Rain
5:53 PM 53.1 °F - 53.1 °F 100% 29.52 in 5.0 mi East 3.5 mph - 0.26 in Rain Rain
6:14 PM 52.0 °F - 52.0 °F 100% 29.50 in 3.0 mi ESE 4.6 mph - 0.11 in Rain Heavy Rain
6:34 PM 52.0 °F - 52.0 °F 100% 29.46 in 3.0 mi North 3.5 mph - 0.22 in Rain Rain
6:41 PM 52.0 °F - 52.0 °F 100% 29.46 in 3.0 mi NE 4.6 mph - 0.26 in Rain Rain
6:53 PM 52.0 °F - 52.0 °F 100% 29.46 in 3.0 mi North 3.5 mph - 0.32 in Rain Rain
7:34 PM 51.1 °F - 51.1 °F 100% 29.43 in 6.0 mi NW 6.9 mph - 0.16 in Rain Light Rain
7:50 PM 51.8 °F - 51.8 °F 100% 29.42 in 4.0 mi WNW 8.1 mph - 0.21 in Rain Rain
7:53 PM 52.0 °F - 52.0 °F 100% 29.43 in 4.0 mi WNW 11.5 mph - 0.22 in Rain Rain
8:00 PM 52.0 °F - 52.0 °F 100% 29.42 in 4.0 mi WNW 12.7 mph - 0.04 in Rain Heavy Rain
8:40 PM 48.9 °F - 48.9 °F 100% 29.40 in 9.0 mi NW 29.9 mph 40.3 mph 0.17 in Rain Light Rain
8:53 PM 46.0 °F 37.4 °F 45.0 °F 96% 29.42 in 10.0 mi NW 25.3 mph 43.7 mph 0.19 in Rain Light Rain
9:11 PM 45.0 °F 35.8 °F 44.1 °F 97% 29.39 in 7.0 mi WNW 26.5 mph 40.3 mph 0.02 in Rain Rain
9:20 PM 45.0 °F 36.2 °F 44.1 °F 97% 29.39 in 6.0 mi WNW 24.2 mph 38.0 mph 0.04 in Rain Light Rain
9:27 PM 45.0 °F 36.0 °F 44.1 °F 97% 29.38 in 6.0 mi WNW 25.3 mph 34.5 mph 0.06 in Rain Rain
9:47 PM 44.6 °F 35.9 °F 44.6 °F 100% 29.38 in 9.0 mi WNW 23.0 mph 36.8 mph 0.09 in Rain Light Rain
9:53 PM 45.0 °F 36.0 °F 44.1 °F 97% 29.39 in 8.0 mi WNW 25.3 mph 39.1 mph 0.10 in Rain Light Rain
10:30 PM 45.0 °F 36.2 °F 44.1 °F 97% 29.36 in 10.0 mi WNW 24.2 mph 33.4 mph 0.02 in Rain Light Rain
10:53 PM 45.0 °F 35.2 °F 43.0 °F 93% 29.37 in 10.0 mi WNW 29.9 mph 41.4 mph 0.03 in Rain Light Rain